Location: Ladysmith
(45.4630°N, 91.1040°W)
Time: 21:52:40
(UTC-05:00)

Amateur Radio Satellites - All Passes

Search period start: 27 May 2017 21:22
Search period end: 28 May 2017 21:22
Location: Ladysmith, 45.4630°N, 91.1040°W

Satellite Date Start Highest point End Downlink Frequencies (MHz)
Time Altitude Azimuth
STRAND 1 27 May 21:26:57 21:31:44 41° 293° (WNW) 21:36:32 437.568
ISS 27 May 21:38:36 21:41:54 71° 334° (NNW) 21:45:12 437.550
CUBEBUG 2 27 May 21:39:06 21:40:16 11° 273° (W) 21:41:26 437.445
M-CUBED/EXP-1 PRIME 27 May 21:43:49 21:47:02 47° 106° (ESE) 21:50:11 437.505
UWE-3 27 May 21:45:10 21:47:39 15° 270° (W) 21:50:11 435.000/436.395/437.385
PRISM 27 May 21:49:07 21:50:34 12° 90° (E) 21:52:01 437.425
PCSat 27 May 21:54:56 21:58:19 16° 327° (NNW) 22:01:43 145.827
UNISAT 6 27 May 22:03:54 22:06:55 17° 91° (E) 22:09:57 437.425
Oscar 11 27 May 22:11:43 22:14:48 19° 268° (W) 22:17:55 .
EO-88 27 May 22:17:59 22:21:36 62° 259° (W) 22:25:16 145.990 - 145.960
Tancredo 1 27 May 22:31:23 22:34:08 29° 348° (NNW) 22:36:54 437.200
FO-29 27 May 22:32:57 22:39:03 41° 97° (E) 22:45:47 435.910
SO-50 27 May 22:33:33 22:38:01 55° 121° (ESE) 22:42:28 436.795
DELFI C3 27 May 22:34:28 22:38:03 31° 264° (W) 22:41:37 145.870
ESTCUBE 1 27 May 22:38:05 22:41:36 23° 64° (ENE) 22:45:08 437.505/2401.250
LO-87 27 May 22:56:55 23:00:20 48° 73° (ENE) 23:03:46 145.935 - 145.965
TIGRISAT 27 May 23:07:10 23:11:46 65° 102° (ESE) 23:16:25 435.000
SPROUT 27 May 23:13:26 23:15:31 14° 60° (ENE) 23:17:36 437.525
ISS 27 May 23:15:51 23:18:46 28° 353° (N) 23:21:41 437.550
M-CUBED/EXP-1 PRIME 27 May 23:19:50 23:21:08 12° 304° (WNW) 23:22:24 437.505
PRISM 27 May 23:22:14 23:26:18 65° 286° (WNW) 23:30:17 437.425
VELOX 1 27 May 23:28:18 23:31:30 20° 63° (ENE) 23:34:42 145.980
UNISAT 6 27 May 23:39:26 23:43:57 57° 287° (WNW) 23:48:31 437.425
EO-79 27 May 23:52:14 23:54:43 15° 91° (E) 23:57:11 145.935-145.965
DX 1 27 May 23:59:56 00:02:36 16° 61° (ENE) 00:05:16 434.975-435.025
50 SAT 28 May 00:01:35 00:03:57 18° 66° (ENE) 00:06:18 437.505
Tancredo 1 28 May 00:07:47 00:10:28 27° 8° (N) 00:13:09 437.200
AIST 2D 28 May 00:12:15 00:15:44 47° 99° (E) 00:19:11 435.315
ESTCUBE 1 28 May 00:13:50 00:18:09 43° 262° (W) 00:22:29 437.505/2401.250
SO-50 28 May 00:14:59 00:18:46 25° 320° (NW) 00:22:32 436.795
FO-29 28 May 00:18:09 00:24:05 42° 293° (WNW) 00:30:41 435.910
RS-15 28 May 00:22:49 00:29:32 17° 94° (E) 00:36:18 29.354- 29.394
LO-87 28 May 00:32:43 00:34:03 12° 270° (W) 00:35:24 145.935 - 145.965
NANOSAT C BR1 28 May 00:35:24 00:39:24 38° 98° (E) 00:43:22 145.865
POLYITAN 1 28 May 00:41:11 00:45:22 49° 100° (E) 00:49:31 437.675
TIGRISAT 28 May 00:45:07 00:47:57 16° 299° (WNW) 00:50:50 435.000
DUCHIFAT 1 28 May 00:45:16 00:49:20 43° 99° (E) 00:53:24 145.980
SPROUT 28 May 00:46:40 00:50:53 69° 258° (WSW) 00:55:07 437.525
QB50P2 28 May 00:49:54 00:54:10 66° 101° (ESE) 00:58:25 145.880/145.840
ISS 28 May 00:52:49 00:55:51 33° 13° (NNE) 00:58:53 437.550
YUBILEINY 28 May 00:55:45 01:03:53 46° 87° (E) 01:12:06 435.215
BUGSAT 1 28 May 00:58:19 01:01:22 19° 93° (E) 01:04:24 437.445
VELOX 1 28 May 01:03:23 01:07:38 46° 261° (W) 01:11:54 145.980
UKube-1 28 May 01:23:16 01:27:33 75° 75° (ENE) 01:31:53 .
Oscar 19 28 May 01:24:02 01:27:02 15° 89° (E) 01:30:01 437.125/150
EO-79 28 May 01:26:38 01:30:48 55° 288° (WNW) 01:34:58 145.935-145.965
BEESAT 28 May 01:32:37 01:34:13 12° 56° (NE) 01:35:49 436.000
50 SAT 28 May 01:33:30 01:36:36 31° 263° (W) 01:39:43 437.505
DX 1 28 May 01:34:03 01:38:20 59° 258° (WSW) 01:42:39 434.975-435.025
Tancredo 1 28 May 01:43:28 01:46:33 77° 26° (NNE) 01:49:37 437.200
AIST 2D 28 May 01:46:48 01:48:33 13° 296° (WNW) 01:50:17 435.315
NANOSAT C BR1 28 May 02:11:36 02:14:53 22° 295° (WNW) 02:18:09 145.865
POLYITAN 1 28 May 02:17:52 02:20:48 18° 297° (WNW) 02:23:43 437.675
DUCHIFAT 1 28 May 02:21:39 02:24:42 20° 296° (WNW) 02:27:46 145.980
QB50P2 28 May 02:27:11 02:29:27 14° 299° (WNW) 02:31:41 145.880/145.840
RS-15 28 May 02:27:34 02:39:30 68° 117° (ESE) 02:51:42 29.354- 29.394
ISS 28 May 02:29:16 02:32:33 69° 213° (SSW) 02:35:49 437.550
BUGSAT 1 28 May 02:32:59 02:36:52 40° 290° (WNW) 02:40:46 437.445
ITUPSAT 1 28 May 02:34:20 02:38:45 40° 68° (ENE) 02:43:14 437.325
MOZHAYETS 4 28 May 02:36:24 02:40:04 24° 64° (ENE) 02:43:45
Gurwin Techsat 1B 28 May 02:51:26 02:56:42 58° 101° (E) 03:01:55 435.225
YUBILEINY 28 May 02:52:32 03:00:44 44° 289° (WNW) 03:09:03 435.215
Oscar 19 28 May 03:01:44 03:06:54 73° 287° (WNW) 03:12:01 437.125/150
UKube-1 28 May 03:02:47 03:04:06 11° 271° (W) 03:05:25 .
BEESAT 28 May 03:06:26 03:11:12 81° 73° (ENE) 03:16:00 436.000
PCSat 28 May 03:11:10 03:15:57 30° 45° (NE) 03:20:43 145.827
O/OREOS (USA 219) 28 May 03:13:48 03:16:59 19° 101° (E) 03:20:10 437.305
Tancredo 1 28 May 03:20:02 03:21:57 15° 225° (SW) 03:23:51 437.200
KKS-1 28 May 03:20:58 03:22:21 11° 57° (ENE) 03:23:44 437.445
CUBESAT XI-V 28 May 03:27:29 03:30:21 16° 61° (ENE) 03:33:12 437.345
AO-7 28 May 04:03:23 04:11:08 40° 98° (E) 04:18:50 .
ITAMSAT 1 28 May 04:06:43 04:11:39 41° 98° (E) 04:16:34 435.822/435.867
ISS 28 May 04:07:55 04:08:29 10° 229° (SW) 04:09:03 437.550
AO-85 28 May 04:12:07 04:15:38 27° 116° (ESE) 04:19:02 145.980
MOZHAYETS 4 28 May 04:12:38 04:16:59 41° 262° (W) 04:21:23
ITUPSAT 1 28 May 04:12:46 04:16:42 25° 266° (W) 04:20:41 437.325
BEESAT 3 28 May 04:23:18 04:24:42 12° 109° (ESE) 04:26:06 437.485
Gurwin Techsat 1B 28 May 04:32:13 04:36:14 22° 299° (WNW) 04:40:15 435.225
RS-15 28 May 04:40:58 04:52:45 50° 323° (NW) 05:04:41 29.354- 29.394
Oscar 19 28 May 04:43:36 04:45:18 12° 306° (NW) 04:47:00 437.125/150
BEESAT 28 May 04:47:40 04:49:34 12° 272° (W) 04:51:29 436.000
O/OREOS (USA 219) 28 May 04:51:32 04:56:00 51° 299° (WNW) 05:00:29 437.305
KKS-1 28 May 04:53:46 04:58:12 89° 75° (ENE) 05:02:40 437.445
PCSat 28 May 04:54:20 04:59:36 52° 245° (WSW) 05:04:50 145.827
CUBESAT XI-V 28 May 05:02:29 05:07:10 68° 258° (WSW) 05:11:54 437.345
STARS 28 May 05:20:06 05:24:26 74° 73° (ENE) 05:28:48 437.465
SO-50 28 May 05:23:01 05:26:08 18° 34° (NE) 05:29:14 436.795
DOVE 4 28 May 05:38:39 05:39:58 11° 89° (E) 05:41:18 437.250
BEESAT 2 28 May 05:41:59 05:45:25 28° 116° (ESE) 05:48:55 435.950
ITAMSAT 1 28 May 05:46:31 05:50:57 29° 296° (WNW) 05:55:23 435.822/435.867
AO-85 28 May 05:52:10 05:55:54 34° 313° (NW) 05:59:33 145.980
AO-7 28 May 05:56:04 06:04:06 53° 298° (WNW) 06:12:07 .
BEESAT 3 28 May 05:57:42 06:01:40 76° 307° (NW) 06:05:42 437.485
CUTE-I 28 May 06:14:49 06:18:09 17° 90° (E) 06:21:28 437.470
LilacSat-2 28 May 06:18:30 06:21:04 17° 92° (E) 06:23:36 437.200
XW-2D 28 May 06:49:56 06:53:32 36° 97° (E) 06:57:06 145.860 - 145.880
XW-2B 28 May 06:57:52 07:01:35 43° 99° (E) 07:05:14 145.730 - 145.750
RS-15 28 May 06:58:37 07:09:09 31° 356° (N) 07:19:35 29.354- 29.394
M-CUBED/EXP-1 PRIME 28 May 06:59:49 07:01:07 11° 56° (NE) 07:02:25 437.505
STARS 28 May 06:59:50 07:01:18 11° 271° (W) 07:02:45 437.465
SO-50 28 May 07:02:41 07:07:13 90° 54° (NE) 07:11:45 436.795
NUDT-PHONESAT 28 May 07:02:55 07:06:29 38° 98° (E) 07:10:00 437.300
STRAND 1 28 May 07:05:51 07:10:45 49° 70° (ENE) 07:15:41 437.568
XW-2F 28 May 07:09:08 07:12:57 57° 100° (E) 07:16:43 145.980 - 146.000
XW-2C 28 May 07:11:31 07:15:22 65° 101° (E) 07:19:11 145.795 - 145.815
KAITUO 1B 28 May 07:13:48 07:17:32 53° 99° (E) 07:21:14 145.475/437.950
DOVE 4 28 May 07:13:59 07:18:07 69° 287° (WNW) 07:22:23 437.250
BEESAT 2 28 May 07:19:27 07:23:06 33° 315° (NW) 07:26:48 435.950
BEESAT 3 28 May 07:37:52 07:39:57 14° 327° (NNW) 07:42:04 437.485
SEEDS 28 May 07:38:53 07:40:47 13° 89° (E) 07:42:40 437.485
HO-68 28 May 07:39:10 07:45:17 29° 94° (E) 07:51:21 435.675
CUBEBUG 2 28 May 07:48:26 07:50:56 14° 89° (E) 07:53:27 437.445
AO-7 28 May 07:50:50 07:55:01 15° 321° (NW) 07:59:14 .
LilacSat-2 28 May 07:51:52 07:55:31 40° 289° (WNW) 07:59:09 437.200
CUTE-I 28 May 07:53:24 07:58:44 72° 287° (WNW) 08:04:03 437.470
UWE-3 28 May 07:56:51 07:57:21 10° 87° (E) 07:57:51 435.000/436.395/437.385
XW-2D 28 May 08:24:43 08:27:29 19° 294° (WNW) 08:30:14 145.860 - 145.880
CUTE 1.7 + AOD 2 28 May 08:26:53 08:31:09 64° 101° (ESE) 08:35:20 437.475
M-CUBED/EXP-1 PRIME 28 May 08:30:57 08:35:07 82° 250° (WSW) 08:38:59 437.505
AAUSAT CUBESAT 2 28 May 08:32:02 08:35:20 22° 93° (E) 08:38:35 437.432
NO-84 28 May 08:32:08 08:36:20 46° 136° (SE) 08:40:27 435.350 FM
XW-2B 28 May 08:32:57 08:35:26 17° 296° (WNW) 08:37:53 145.730 - 145.750
NUDT-PHONESAT 28 May 08:37:33 08:40:06 18° 295° (WNW) 08:42:39 437.300
XW-2A 28 May 08:38:21 08:41:49 80° 100° (E) 08:45:16 145.665 - 145.685
PRISM 28 May 08:40:32 08:42:26 13° 60° (ENE) 08:44:19 437.425
XW-2F 28 May 08:44:47 08:46:37 13° 298° (WNW) 08:48:26 145.980 - 146.000
SO-50 28 May 08:45:29 08:46:58 11° 252° (WSW) 08:48:28 436.795
STRAND 1 28 May 08:46:15 08:50:12 22° 267° (W) 08:54:11 437.568
XW-2C 28 May 08:47:32 08:49:03 12° 298° (WNW) 08:50:33 145.795 - 145.815
AO-73 28 May 08:48:37 08:51:52 19° 91° (E) 08:55:07 145.935
KAITUO 1B 28 May 08:49:10 08:51:07 14° 297° (WNW) 08:53:03 145.475/437.950
FO-29 28 May 08:50:24 08:53:54 18° 57° (ENE) 08:57:31 435.910
ZACube-1 28 May 09:03:11 09:07:10 29° 95° (E) 09:11:09 437.345
UNISAT 6 28 May 09:05:08 09:08:07 19° 63° (ENE) 09:11:10 437.425
SEEDS 28 May 09:12:43 09:16:54 63° 286° (WNW) 09:21:02 437.485
RS-15 28 May 09:14:26 09:26:00 42° 30° (NNE) 09:37:06 29.354- 29.394
CUBEBUG 2 28 May 09:23:24 09:27:58 68° 285° (WNW) 09:32:38 437.445
HO-68 28 May 09:26:20 09:33:25 61° 293° (WNW) 09:40:27 435.675
UWE-3 28 May 09:29:48 09:34:25 89° 103° (ESE) 09:39:05 435.000/436.395/437.385
CUTE-I 28 May 09:35:54 09:37:50 12° 306° (NW) 09:39:48 437.470
Oscar 11 28 May 09:54:58 09:59:20 69° 101° (E) 10:03:40 .
CUTE 1.7 + AOD 2 28 May 10:04:09 10:06:27 14° 299° (WNW) 10:08:44 437.475
AAUSAT CUBESAT 2 28 May 10:07:06 10:10:51 33° 291° (WNW) 10:14:34 437.432
TIGRISAT 28 May 10:07:50 10:12:05 71° 74° (ENE) 10:16:28 435.000
DELFI C3 28 May 10:09:05 10:12:26 26° 95° (E) 10:15:46 145.870
NO-84 28 May 10:09:53 10:14:02 41° 334° (NNW) 10:18:01 435.350 FM
PRISM 28 May 10:13:04 10:17:10 69° 258° (WSW) 10:21:18 437.425
AO-73 28 May 10:23:57 10:28:21 49° 288° (WNW) 10:32:45 145.935
FO-29 28 May 10:33:18 10:38:26 66° 258° (WSW) 10:43:49 435.910
ZACube-1 28 May 10:39:22 10:43:25 32° 292° (WNW) 10:47:30 437.345
UNISAT 6 28 May 10:40:20 10:44:29 48° 261° (W) 10:48:44 437.425
EO-79 28 May 10:46:59 10:49:31 16° 62° (ENE) 10:52:02 145.935-145.965
AIST 2D 28 May 10:48:54 10:51:48 24° 68° (ENE) 10:54:43 435.315
YUBILEINY 28 May 11:02:59 11:10:08 26° 62° (ENE) 11:17:15 435.215
UWE-3 28 May 11:08:20 11:10:11 12° 301° (WNW) 11:12:03 435.000/436.395/437.385
HO-68 28 May 11:16:10 11:19:44 15° 314° (NW) 11:23:18 435.675
EO-88 28 May 11:18:05 11:21:45 64° 285° (WNW) 11:25:24 145.990 - 145.960
RS-15 28 May 11:27:38 11:39:55 83° 238° (WSW) 11:51:34 29.354- 29.394
NANOSAT C BR1 28 May 11:29:21 11:33:12 37° 69° (ENE) 11:37:05 145.865
Oscar 11 28 May 11:32:39 11:34:56 14° 299° (WNW) 11:37:11 .
POLYITAN 1 28 May 11:35:34 11:39:35 47° 71° (ENE) 11:43:39 437.675
DUCHIFAT 1 28 May 11:38:53 11:42:48 42° 70° (ENE) 11:46:46 145.980
DELFI C3 28 May 11:43:52 11:47:10 26° 292° (WNW) 11:50:26 145.870
QB50P2 28 May 11:44:13 11:48:21 64° 74° (ENE) 11:52:33 145.880/145.840
TIGRISAT 28 May 11:47:47 11:49:19 12° 272° (W) 11:50:52 435.000
NO-84 28 May 11:49:08 11:52:27 22° 354° (N) 11:55:38 435.350 FM
BUGSAT 1 28 May 11:50:28 11:53:14 18° 64° (ENE) 11:56:01 437.445
LO-87 28 May 11:54:51 11:58:17 43° 99° (E) 12:01:42 145.935 - 145.965
ESTCUBE 1 28 May 12:03:56 12:08:01 33° 96° (E) 12:12:05 437.505/2401.250
EO-79 28 May 12:20:44 12:24:50 56° 260° (W) 12:29:00 145.935-145.965
AIST 2D 28 May 12:22:06 12:24:57 23° 266° (W) 12:27:49 435.315
SPROUT 28 May 12:30:59 12:33:49 17° 91° (E) 12:36:40 437.525
BEESAT 3 28 May 12:35:37 12:38:34 19° 38° (NE) 12:41:29 437.485
Gurwin Techsat 1B 28 May 12:37:13 12:40:43 18° 59° (ENE) 12:44:12 435.225
AO-85 28 May 12:40:12 12:44:04 46° 49° (NE) 12:48:06 145.980
Oscar 19 28 May 12:42:22 12:46:48 30° 64° (ENE) 12:51:16 437.125/150
VELOX 1 28 May 12:51:14 12:54:58 27° 95° (E) 12:58:40 145.980
50 SAT 28 May 12:55:21 12:56:50 12° 91° (E) 12:58:19 437.505
YUBILEINY 28 May 12:59:05 13:07:56 78° 266° (W) 13:16:45 435.215
NANOSAT C BR1 28 May 13:05:51 13:09:02 21° 267° (W) 13:12:16 145.865
UKube-1 28 May 13:11:11 13:11:33 10° 88° (E) 13:11:56 .
POLYITAN 1 28 May 13:12:55 13:15:38 17° 269° (W) 13:18:23 437.675
DUCHIFAT 1 28 May 13:15:43 13:18:40 19° 268° (W) 13:21:38 145.980
AO-7 28 May 13:16:19 13:21:24 18° 43° (NE) 13:26:30 .
O/OREOS (USA 219) 28 May 13:20:05 13:24:31 51° 61° (ENE) 13:28:53 437.305
DX 1 28 May 13:20:36 13:23:46 20° 93° (E) 13:26:56 434.975-435.025
QB50P2 28 May 13:22:46 13:24:35 13° 271° (W) 13:26:25 145.880/145.840
BUGSAT 1 28 May 13:24:30 13:28:18 41° 261° (W) 13:32:08 437.445
NO-84 28 May 13:27:35 13:31:03 26° 15° (NNE) 13:34:19 435.350 FM
LO-87 28 May 13:29:28 13:31:22 14° 296° (WNW) 13:33:17 145.935 - 145.965
ESTCUBE 1 28 May 13:40:54 13:44:43 28° 294° (WNW) 13:48:31 437.505/2401.250
RS-15 28 May 13:41:53 13:50:27 24° 261° (W) 13:58:45 29.354- 29.394
ITAMSAT 1 28 May 13:51:08 13:53:18 13° 55° (NE) 13:55:29 435.822/435.867
BEESAT 2 28 May 13:57:05 14:00:54 37° 47° (NE) 14:04:41 435.950
SPROUT 28 May 14:05:51 14:09:58 48° 289° (WNW) 14:14:06 437.525
BEESAT 3 28 May 14:12:32 14:16:32 64° 239° (WSW) 14:20:28 437.485
Gurwin Techsat 1B 28 May 14:14:46 14:20:04 74° 257° (WSW) 14:25:24 435.225
Oscar 19 28 May 14:21:06 14:25:59 40° 262° (W) 14:30:53 437.125/150
AO-85 28 May 14:21:11 14:24:12 20° 246° (WSW) 14:27:19 145.980
50 SAT 28 May 14:26:41 14:29:55 41° 288° (WNW) 14:33:07 437.505
VELOX 1 28 May 14:27:32 14:31:26 32° 292° (WNW) 14:35:19 145.980
UKube-1 28 May 14:43:49 14:48:09 82° 285° (WNW) 14:52:27 .
DX 1 28 May 14:56:03 15:00:09 43° 290° (WNW) 15:04:14 434.975-435.025
YUBILEINY 28 May 14:58:11 15:03:12 17° 286° (WNW) 15:08:14 435.215
O/OREOS (USA 219) 28 May 15:00:29 15:03:30 18° 260° (W) 15:06:30 437.305
AO-7 28 May 15:04:30 15:12:38 65° 65° (ENE) 15:20:51 .
NO-84 28 May 15:05:11 15:09:06 88° 38° (NE) 15:12:39 435.350 FM
BEESAT 28 May 15:05:19 15:08:29 17° 91° (E) 15:11:38 436.000
ITAMSAT 1 28 May 15:26:45 15:31:55 79° 73° (ENE) 15:37:07 435.822/435.867
BEESAT 2 28 May 15:35:09 15:38:30 25° 245° (WSW) 15:41:50 435.950
MOZHAYETS 4 28 May 16:05:06 16:09:28 38° 97° (E) 16:13:47
ITUPSAT 1 28 May 16:09:44 16:14:34 69° 103° (ESE) 16:19:21 437.325
BEESAT 28 May 16:41:55 16:46:38 58° 289° (WNW) 16:51:20 436.000
KKS-1 28 May 16:43:50 16:46:14 14° 90° (E) 16:48:39 437.445
NO-84 28 May 16:44:22 16:46:00 13° 236° (WSW) 16:47:36 435.350 FM
DOVE 4 28 May 16:45:38 16:48:29 17° 64° (ENE) 16:51:16 437.250
CUBESAT XI-V 28 May 16:57:14 17:01:05 25° 94° (E) 17:04:54 437.345
AO-7 28 May 16:58:49 17:05:55 31° 265° (W) 17:13:08 .
LilacSat-2 28 May 17:03:29 17:05:12 13° 62° (ENE) 17:06:54 437.200
ITAMSAT 1 28 May 17:09:17 17:11:59 14° 271° (W) 17:14:43 435.822/435.867
STARS 28 May 17:09:25 17:10:46 11° 89° (E) 17:12:05 437.465
XW-2D 28 May 17:33:23 17:36:32 25° 68° (ENE) 17:39:43 145.860 - 145.880
CUTE-I 28 May 17:38:17 17:43:00 34° 65° (ENE) 17:47:44 437.470
XW-2B 28 May 17:41:11 17:44:31 29° 69° (ENE) 17:47:52 145.730 - 145.750
MOZHAYETS 4 28 May 17:42:37 17:46:26 26° 295° (WNW) 17:50:14
NUDT-PHONESAT 28 May 17:44:26 17:47:30 24° 68° (ENE) 17:50:35 437.300
ITUPSAT 1 28 May 17:48:51 17:51:51 17° 300° (WNW) 17:54:50 437.325
XW-2F 28 May 17:51:54 17:55:25 36° 71° (ENE) 17:58:58 145.980 - 146.000
XW-2C 28 May 17:54:38 17:58:14 41° 72° (ENE) 18:01:53 145.795 - 145.815
KAITUO 1B 28 May 17:55:44 17:59:10 33° 70° (ENE) 18:02:37 145.475/437.950
PCSat 28 May 17:57:32 18:00:21 14° 103° (ESE) 18:03:10 145.827
HO-68 28 May 18:10:34 18:16:30 29° 57° (ENE) 18:22:28 435.675
KKS-1 28 May 18:18:49 18:23:12 62° 287° (WNW) 18:27:35 437.445
DOVE 4 28 May 18:21:24 18:25:51 54° 260° (W) 18:30:05 437.250
SEEDS 28 May 18:32:59 18:34:58 13° 61° (ENE) 18:36:57 437.485
CUBESAT XI-V 28 May 18:34:16 18:38:33 37° 291° (WNW) 18:42:47 437.345
LilacSat-2 28 May 18:35:10 18:38:58 61° 260° (W) 18:42:50 437.200
STARS 28 May 18:43:14 18:47:38 77° 287° (WNW) 18:52:01 437.465
CUBEBUG 2 28 May 18:49:16 18:51:34 15° 61° (ENE) 18:53:54 437.445
UWE-3 28 May 18:56:11 18:57:11 11° 58° (ENE) 18:58:11 435.000/436.395/437.385
XW-2D 28 May 19:07:22 19:10:39 26° 265° (W) 19:13:56 145.860 - 145.880
XW-2A 28 May 19:11:39 19:14:44 34° 71° (ENE) 19:17:51 145.665 - 145.685
ISS 28 May 19:13:05 19:13:54 11° 131° (SE) 19:14:44 437.550
STRAND 1 28 May 19:15:33 19:18:13 14° 89° (E) 19:20:53 437.568
XW-2B 28 May 19:15:39 19:18:43 23° 266° (W) 19:21:48 145.730 - 145.750
CUTE-I 28 May 19:18:10 19:23:00 35° 263° (W) 19:27:52 437.470
NUDT-PHONESAT 28 May 19:18:11 19:21:20 25° 265° (W) 19:24:30 437.300
CUTE 1.7 + AOD 2 28 May 19:21:08 19:25:20 58° 73° (ENE) 19:29:35 437.475
AAUSAT CUBESAT 2 28 May 19:24:18 19:27:27 21° 65° (ENE) 19:30:36 437.432
XW-2F 28 May 19:27:04 19:29:42 18° 268° (W) 19:32:21 145.980 - 146.000
XW-2C 28 May 19:30:14 19:32:38 16° 269° (W) 19:35:03 145.795 - 145.815
KAITUO 1B 28 May 19:30:30 19:33:15 19° 267° (W) 19:36:03 145.475/437.950
PCSat 28 May 19:37:32 19:42:58 88° 304° (WNW) 19:48:27 145.827
AO-73 28 May 19:46:30 19:49:29 19° 63° (ENE) 19:52:31 145.935
Tancredo 1 28 May 19:52:33 19:55:23 35° 143° (SE) 19:58:14 437.200
HO-68 28 May 19:56:36 20:03:43 66° 256° (WSW) 20:10:55 435.675
ZACube-1 28 May 20:01:08 20:04:46 28° 67° (ENE) 20:08:28 437.345
SEEDS 28 May 20:05:50 20:10:05 72° 258° (WSW) 20:14:21 437.485
CUBEBUG 2 28 May 20:23:33 20:27:40 62° 259° (W) 20:31:56 437.445
UWE-3 28 May 20:28:40 20:32:53 90° 253° (WSW) 20:37:15 435.000/436.395/437.385
XW-2A 28 May 20:45:44 20:47:38 14° 268° (W) 20:49:33 145.665 - 145.685
ISS 28 May 20:46:35 20:49:52 71° 148° (SSE) 20:53:09 437.550
Oscar 11 28 May 20:51:24 20:55:43 68° 73° (ENE) 21:00:04 .
STRAND 1 28 May 20:52:50 20:58:00 79° 286° (WNW) 21:03:09 437.568
DELFI C3 28 May 20:56:42 20:59:46 22° 66° (ENE) 21:02:51 145.870
AAUSAT CUBESAT 2 28 May 20:58:44 21:02:39 39° 262° (W) 21:06:36 437.432
CUTE 1.7 + AOD 2 28 May 20:59:13 21:01:32 14° 270° (W) 21:03:53 437.475
